weather.gov     
National Weather Service

Terminal Aerodrome Forecast
NWS Homepage
This page is being discontinued on March 12, 2014.
The same data is available at this site. Please update your bookmarks.
Thank you, and we apologize for the inconvenience.
Please send an email to SR-SRH.Webmaster@noaa.gov with any concerns.


Current Version
Previous Version:    01  02  03  04  05  06  07  08  09  10  11  12  13  14  15  16  17  18  19  20  21  22  23  24  25  26  27  28  29  30  
   31  32  33  34  35  36  37  
[Printable]
818
FTUS42 KGSP 270520
TAFAVL
TAF
KAVL 270520Z 2706/2806 35012G20KT P6SM SCT016
     FM270900 33012G20KT P6SM BKN016
     FM271500 33010G17KT P6SM BKN025
     FM271800 33010G18KT P6SM BKN040
     FM271900 33010G18KT P6SM SCT040
     FM280000 32011KT P6SM SCT250=




818
FTUS42 KGSP 270520
TAFAVL
TAF
KAVL 270520Z 2706/2806 35012G20KT P6SM SCT016
     FM270900 33012G20KT P6SM BKN016
     FM271500 33010G17KT P6SM BKN025
     FM271800 33010G18KT P6SM BKN040
     FM271900 33010G18KT P6SM SCT040
     FM280000 32011KT P6SM SCT250=


U.S. Dept. of Commerce
NOAA National Weather Service
1325 East West Highway
Silver Spring, MD 20910
E-mail: w-nws.webmaster@noaa.gov
Page last modified: May 16, 2007
NATIONAL WEATHER SERVICE: for Safety, for Work, for Fun - FOR LIFE